IGO719 VOBL-VOPB

Flight info

Callsign IGO719
Flight time N/A
Altitude 39000
Route TULNA8A TULNA W116 MMV P761 LEGIN L510 NIMOV
Aircraft A20N/M-SDE2E3FGHIRWXY/LB1

Departure

Time 2026-05-07 07:24
Airport Kempegowda International Airport Bengaluru (VOBL)

Arrival

Time N/A
Airport Veer Savarkar International Airport / INS Utkrosh (VOPB)
Time Latitude Longitude Altitude Speed Heading
2026-05-07 06:34 13.20187 77.71181 3011 ft 0 kts 180°
2026-05-07 06:51 13.20188 77.71181 3011 ft 2 kts 180°
2026-05-07 06:51 13.20204 77.71181 3011 ft 2 kts 187°
2026-05-07 06:52 13.20220 77.71183 3018 ft 2 kts 189°
2026-05-07 06:52 13.20231 77.71185 3015 ft 2 kts 197°
2026-05-07 06:52 13.20247 77.71192 3015 ft 2 kts 215°
2026-05-07 06:52 13.20258 77.71205 3011 ft 0 kts 254°
2026-05-07 06:53 13.20256 77.71199 3011 ft 2 kts 253°
2026-05-07 06:53 13.20246 77.71191 3013 ft 2 kts 194°
2026-05-07 06:53 13.20234 77.71189 3014 ft 2 kts 193°
2026-05-07 06:53 13.20231 77.71190 3011 ft 2 kts 165°
2026-05-07 06:54 13.20246 77.71183 3012 ft 2 kts 141°
2026-05-07 06:54 13.20257 77.71171 3011 ft 2 kts 115°
2026-05-07 06:54 13.20262 77.71156 3011 ft 2 kts 90°
2026-05-07 06:54 13.20262 77.71154 3011 ft 0 kts 90°
2026-05-07 06:58 13.20262 77.71160 3011 ft 2 kts 89°
2026-05-07 06:58 13.20261 77.71180 3011 ft 4 kts 92°
2026-05-07 06:58 13.20260 77.71219 3014 ft 7 kts 91°
2026-05-07 06:59 13.20275 77.71266 3015 ft 7 kts 44°
2026-05-07 06:59 13.20325 77.71276 3013 ft 9 kts
2026-05-07 06:59 13.20386 77.71276 3011 ft 9 kts
2026-05-07 06:59 13.20439 77.71277 3011 ft 6 kts 358°
2026-05-07 07:00 13.20486 77.71277 3011 ft 6 kts
2026-05-07 07:00 13.20513 77.71300 3013 ft 3 kts 95°
2026-05-07 07:00 13.20515 77.71322 3011 ft 0 kts 74°
2026-05-07 07:00 13.20516 77.71326 3016 ft 1 kts 74°
2026-05-07 07:01 13.20521 77.71345 3011 ft 4 kts 77°
2026-05-07 07:01 13.20524 77.71384 3011 ft 7 kts 88°
2026-05-07 07:01 13.20524 77.71438 3011 ft 9 kts 89°
2026-05-07 07:01 13.20525 77.71509 3011 ft 11 kts 89°
2026-05-07 07:02 13.20522 77.71588 3011 ft 11 kts 91°
2026-05-07 07:02 13.20520 77.71647 3011 ft 1 kts 91°
2026-05-07 07:02 13.20520 77.71660 3011 ft 3 kts 91°
2026-05-07 07:02 13.20519 77.71689 3011 ft 2 kts 90°
2026-05-07 07:03 13.20520 77.71716 3011 ft 5 kts 88°
2026-05-07 07:03 13.20518 77.71760 3011 ft 7 kts 102°
2026-05-07 07:03 13.20479 77.71791 3011 ft 8 kts 166°
2026-05-07 07:03 13.20438 77.71830 3011 ft 9 kts 104°
2026-05-07 07:04 13.20438 77.71902 3011 ft 11 kts 88°
2026-05-07 07:04 13.20439 77.71963 3011 ft 0 kts 92°
2026-05-07 07:08 13.20439 77.71969 3042 ft 2 kts 95°
2026-05-07 07:08 13.20437 77.71993 3011 ft 5 kts 92°
2026-05-07 07:08 13.20436 77.72036 3011 ft 7 kts 90°
2026-05-07 07:09 13.20432 77.72090 3011 ft 9 kts 105°
2026-05-07 07:09 13.20380 77.72118 3011 ft 9 kts 170°
2026-05-07 07:09 13.20313 77.72113 3011 ft 11 kts 180°
2026-05-07 07:09 13.20258 77.72089 3011 ft 10 kts 247°
2026-05-07 07:10 13.20257 77.72013 3011 ft 12 kts 271°
2026-05-07 07:10 13.20258 77.71923 3011 ft 14 kts 272°
2026-05-07 07:10 13.20258 77.71828 3011 ft 6 kts 271°
2026-05-07 07:10 13.20279 77.71791 3014 ft 7 kts 328°
2026-05-07 07:11 13.20335 77.71788 3011 ft 9 kts
2026-05-07 07:11 13.20402 77.71788 3011 ft 9 kts 354°
2026-05-07 07:11 13.20438 77.71754 3011 ft 6 kts 288°
2026-05-07 07:11 13.20439 77.71739 3011 ft 1 kts 267°
2026-05-07 07:12 13.20439 77.71737 3011 ft 0 kts 268°
2026-05-07 07:13 13.20439 77.71730 3011 ft 2 kts 270°
2026-05-07 07:13 13.20439 77.71694 3011 ft 10 kts 270°
2026-05-07 07:14 13.20440 77.71579 3011 ft 22 kts 271°
2026-05-07 07:14 13.20440 77.71404 3011 ft 19 kts 271°
2026-05-07 07:14 13.20442 77.71317 3011 ft 0 kts 272°
2026-05-07 07:14 13.20444 77.71306 3014 ft 4 kts 282°
2026-05-07 07:15 13.20463 77.71281 3011 ft 6 kts 328°
2026-05-07 07:15 13.20498 77.71273 3011 ft 7 kts 345°
2026-05-07 07:15 13.20526 77.71229 3011 ft 9 kts 272°
2026-05-07 07:15 13.20526 77.71155 3011 ft 12 kts 270°
2026-05-07 07:16 13.20527 77.71057 3010 ft 15 kts 270°
2026-05-07 07:16 13.20526 77.70938 3010 ft 18 kts 269°
2026-05-07 07:16 13.20528 77.70804 3010 ft 20 kts 270°
2026-05-07 07:16 13.20530 77.70651 3013 ft 22 kts 271°
2026-05-07 07:17 13.20530 77.70486 3011 ft 24 kts 269°
2026-05-07 07:17 13.20532 77.70309 3011 ft 26 kts 269°
2026-05-07 07:17 13.20535 77.70124 3011 ft 27 kts 269°
2026-05-07 07:17 13.20537 77.69934 3011 ft 27 kts 272°
2026-05-07 07:18 13.20542 77.69751 3011 ft 22 kts 270°
2026-05-07 07:18 13.20540 77.69621 3011 ft 16 kts 272°
2026-05-07 07:18 13.20542 77.69500 3010 ft 18 kts 268°
2026-05-07 07:18 13.20541 77.69372 3010 ft 19 kts 270°
2026-05-07 07:19 13.20542 77.69248 3011 ft 14 kts 269°
2026-05-07 07:19 13.20544 77.69141 3010 ft 16 kts 271°
2026-05-07 07:19 13.20544 77.69018 3010 ft 18 kts 269°
2026-05-07 07:19 13.20544 77.68894 3010 ft 14 kts 271°
2026-05-07 07:20 13.20546 77.68798 3011 ft 5 kts 271°
2026-05-07 07:20 13.20546 77.68757 3011 ft 7 kts 271°
2026-05-07 07:20 13.20547 77.68697 3011 ft 10 kts 271°
2026-05-07 07:20 13.20548 77.68659 3011 ft 1 kts 272°
2026-05-07 07:21 13.20550 77.68646 3011 ft 3 kts 282°
2026-05-07 07:21 13.20564 77.68622 3015 ft 5 kts 316°
2026-05-07 07:21 13.20598 77.68615 3011 ft 6 kts
2026-05-07 07:21 13.20602 77.68615 3011 ft 0 kts
2026-05-07 07:22 13.20603 77.68615 3011 ft 0 kts
2026-05-07 07:22 13.20612 77.68615 3011 ft 3 kts
2026-05-07 07:23 13.20642 77.68615 3011 ft 6 kts 360°
2026-05-07 07:23 13.20690 77.68628 3011 ft 9 kts 28°
2026-05-07 07:23 13.20719 77.68684 3011 ft 10 kts 84°
2026-05-07 07:23 13.20719 77.68714 3011 ft 0 kts 87°
2026-05-07 07:24 13.20719 77.68936 3011 ft 67 kts 90°
2026-05-07 07:24 13.20713 77.69645 3011 ft 133 kts 91°
2026-05-07 07:24 13.20675 77.70800 3128 ft 183 kts 92°
2026-05-07 07:24 13.20704 77.72188 3805 ft 204 kts 86°
2026-05-07 07:25 13.21332 77.75418 5178 ft 252 kts 71°
2026-05-07 07:25 13.22042 77.77106 6123 ft 261 kts 62°
2026-05-07 07:25 13.22819 77.78766 7086 ft 260 kts 76°
2026-05-07 07:26 13.22857 77.80611 8085 ft 255 kts 101°
2026-05-07 07:26 13.22358 77.82381 8663 ft 272 kts 108°
2026-05-07 07:26 13.21730 77.84291 9184 ft 286 kts 107°
2026-05-07 07:26 13.21170 77.86257 10019 ft 288 kts 103°
2026-05-07 07:27 13.20681 77.88287 10512 ft 304 kts 102°
2026-05-07 07:27 13.20215 77.90501 10734 ft 328 kts 101°
2026-05-07 07:27 13.19755 77.92854 11125 ft 342 kts 100°
2026-05-07 07:27 13.19294 77.95256 11834 ft 345 kts 101°
2026-05-07 07:28 13.18827 77.97688 12554 ft 349 kts 101°
2026-05-07 07:28 13.18353 78.00149 13253 ft 353 kts 101°
2026-05-07 07:28 13.17870 78.02643 13762 ft 358 kts 101°
2026-05-07 07:28 13.17380 78.05170 14000 ft 360 kts 101°
2026-05-07 07:29 13.16895 78.07668 14563 ft 363 kts 101°
2026-05-07 07:29 13.16396 78.10230 15152 ft 368 kts 101°
2026-05-07 07:29 13.15889 78.12828 15703 ft 373 kts 101°
2026-05-07 07:29 13.15376 78.15458 16257 ft 378 kts 101°
2026-05-07 07:30 13.14856 78.18125 16787 ft 383 kts 101°
2026-05-07 07:30 13.14328 78.20829 17296 ft 388 kts 101°
2026-05-07 07:30 13.13795 78.23559 17814 ft 393 kts 101°
2026-05-07 07:30 13.13252 78.26337 18316 ft 398 kts 101°
2026-05-07 07:31 13.12712 78.29097 18802 ft 400 kts 101°
2026-05-07 07:31 13.12163 78.31903 19284 ft 403 kts 101°
2026-05-07 07:31 13.11610 78.34725 19784 ft 404 kts 101°
2026-05-07 07:31 13.11054 78.37567 20256 ft 407 kts 101°
2026-05-07 07:32 13.10495 78.40417 20741 ft 409 kts 101°
2026-05-07 07:32 13.09931 78.43290 21205 ft 412 kts 101°
2026-05-07 07:32 13.09364 78.46177 21659 ft 414 kts 102°
2026-05-07 07:32 13.08792 78.49091 22120 ft 417 kts 102°
2026-05-07 07:33 13.08218 78.52008 22532 ft 420 kts 102°
2026-05-07 07:33 13.07639 78.54954 22995 ft 422 kts 102°
2026-05-07 07:33 13.07055 78.57918 23437 ft 425 kts 102°
2026-05-07 07:33 13.06468 78.60901 23801 ft 427 kts 102°
2026-05-07 07:34 13.05879 78.63888 24168 ft 429 kts 102°
2026-05-07 07:34 13.05287 78.66890 24525 ft 431 kts 102°
2026-05-07 07:34 13.04690 78.69915 24874 ft 433 kts 102°
2026-05-07 07:34 13.04089 78.72958 25224 ft 435 kts 102°
2026-05-07 07:35 13.03487 78.76005 25567 ft 437 kts 102°
2026-05-07 07:35 13.02881 78.79066 25889 ft 439 kts 102°
2026-05-07 07:35 13.02282 78.82098 26221 ft 441 kts 102°
2026-05-07 07:35 13.01669 78.85193 26534 ft 443 kts 102°
2026-05-07 07:36 13.01054 78.88295 26845 ft 445 kts 102°
2026-05-07 07:36 13.00437 78.91405 27159 ft 447 kts 102°
2026-05-07 07:36 12.99816 78.94540 27462 ft 449 kts 102°
2026-05-07 07:36 12.99191 78.97685 27743 ft 451 kts 102°
2026-05-07 07:37 12.98564 79.00845 28039 ft 453 kts 102°
2026-05-07 07:37 12.97933 79.04014 28332 ft 455 kts 102°
2026-05-07 07:37 12.97514 79.06122 28516 ft 456 kts 102°
2026-05-07 07:37 12.97018 79.09335 28793 ft 458 kts 96°
2026-05-07 07:38 12.96882 79.12609 29060 ft 460 kts 89°
2026-05-07 07:38 12.96962 79.15895 29319 ft 462 kts 89°
2026-05-07 07:38 12.97034 79.19185 29568 ft 463 kts 89°
2026-05-07 07:38 12.97100 79.22509 29816 ft 466 kts 89°
2026-05-07 07:39 12.97186 79.26923 30117 ft 469 kts 89°
2026-05-07 07:39 12.97230 79.29182 30261 ft 470 kts 89°
2026-05-07 07:39 12.97294 79.32543 30484 ft 472 kts 89°
2026-05-07 07:39 12.97359 79.35903 30711 ft 473 kts 89°
2026-05-07 07:40 12.97424 79.39250 30927 ft 475 kts 89°
2026-05-07 07:40 12.97488 79.42640 31208 ft 476 kts 89°
2026-05-07 07:40 12.97552 79.46036 31493 ft 475 kts 89°
2026-05-07 07:40 12.97616 79.49422 31815 ft 475 kts 90°
2026-05-07 07:41 12.97679 79.52805 32123 ft 474 kts 90°
2026-05-07 07:41 12.97742 79.56192 32425 ft 474 kts 90°
2026-05-07 07:41 12.97803 79.59569 32733 ft 473 kts 90°
2026-05-07 07:41 12.97865 79.62941 33041 ft 472 kts 90°
2026-05-07 07:42 12.97925 79.66268 33315 ft 472 kts 90°
2026-05-07 07:42 12.97986 79.69632 33591 ft 472 kts 90°
2026-05-07 07:42 12.98046 79.72994 33858 ft 472 kts 90°
2026-05-07 07:42 12.98105 79.76349 34129 ft 470 kts 90°
2026-05-07 07:43 12.98164 79.79699 34347 ft 470 kts 90°
2026-05-07 07:43 12.98222 79.83048 34543 ft 470 kts 90°
2026-05-07 07:43 12.98280 79.86393 34752 ft 470 kts 90°
2026-05-07 07:43 12.98338 79.89740 34979 ft 470 kts 90°
2026-05-07 07:44 12.98395 79.93098 35161 ft 470 kts 90°
2026-05-07 07:44 12.98452 79.96446 35400 ft 469 kts 90°
2026-05-07 07:44 12.98508 79.99787 35633 ft 469 kts 90°
2026-05-07 07:44 12.98564 80.03133 35842 ft 468 kts 90°
2026-05-07 07:45 12.98619 80.06463 36062 ft 468 kts 90°
2026-05-07 07:45 12.98674 80.09800 36284 ft 467 kts 90°
2026-05-07 07:45 12.98728 80.13127 36493 ft 467 kts 90°
2026-05-07 07:45 12.98683 80.16463 36701 ft 466 kts 95°
2026-05-07 07:46 12.98383 80.19775 36897 ft 466 kts 96°
2026-05-07 07:46 12.98078 80.23077 37104 ft 466 kts 96°
2026-05-07 07:46 12.97783 80.26343 37304 ft 465 kts 96°
2026-05-07 07:46 12.97487 80.29643 37503 ft 465 kts 96°
2026-05-07 07:47 12.97191 80.32937 37700 ft 464 kts 96°
2026-05-07 07:47 12.96893 80.36243 37870 ft 464 kts 96°
2026-05-07 07:47 12.96595 80.39533 38069 ft 463 kts 96°
2026-05-07 07:47 12.96297 80.42821 38254 ft 462 kts 96°
2026-05-07 07:48 12.95998 80.46103 38431 ft 462 kts 96°
2026-05-07 07:48 12.95700 80.49379 38591 ft 461 kts 96°
2026-05-07 07:48 12.95401 80.52655 38744 ft 460 kts 96°
2026-05-07 07:49 12.94805 80.59177 38820 ft 458 kts 96°
2026-05-07 07:49 12.94214 80.65619 38826 ft 457 kts 96°
2026-05-07 07:50 12.93619 80.72103 38825 ft 456 kts 96°
2026-05-07 07:50 12.93022 80.78581 38828 ft 456 kts 96°
2026-05-07 07:51 12.92521 80.84004 38822 ft 455 kts 96°